TAP2HM LPPT-EDDH

Flight info

Callsign TAP2HM
Flight time 2h 58m
Altitude 36000
Route IXIDA DCT TOSDI DCT ZMR DCT NUBLO DCT RONSI DCT DELOG DCT PEXOD DCT DIDIG DCT TIRAV DCT ERJAZ DCT PIWIZ DCT TSU UM163 LEQOS DCT CTL DCT ARDEN/N0448F370 DCT KOMOB DCT BASUM/N0449F380 Y850 PIXUR/N0450F370 Y850 MUBZI M105 RIBSO RIBSO3P
Aircraft A320/M-SDE3FGHIRWY/LB1

Departure

Time 2026-04-26 16:21
Airport Lisbon Humberto Delgado Airport (LPPT)

Arrival

Time 2026-04-26 19:19
Airport Hamburg Helmut Schmidt Airport (EDDH)
Time Latitude Longitude Altitude Speed Heading
2026-04-26 15:53 38.76716 -9.13001 337 ft 0 kts 78°
2026-04-26 16:13 38.76715 -9.13002 337 ft 1 kts 78°
2026-04-26 16:13 38.76710 -9.13032 334 ft 4 kts 71°
2026-04-26 16:13 38.76699 -9.13063 332 ft 4 kts 54°
2026-04-26 16:14 38.76688 -9.13080 334 ft 4 kts 23°
2026-04-26 16:14 38.76674 -9.13083 335 ft 1 kts 348°
2026-04-26 16:14 38.76671 -9.13083 334 ft 0 kts 348°
2026-04-26 16:16 38.76672 -9.13083 334 ft 0 kts 348°
2026-04-26 16:16 38.76696 -9.13090 334 ft 8 kts 347°
2026-04-26 16:17 38.76760 -9.13108 338 ft 10 kts 345°
2026-04-26 16:17 38.76778 -9.13177 340 ft 9 kts 258°
2026-04-26 16:17 38.76765 -9.13256 341 ft 9 kts 258°
2026-04-26 16:17 38.76754 -9.13323 345 ft 7 kts 258°
2026-04-26 16:18 38.76735 -9.13388 351 ft 9 kts 231°
2026-04-26 16:18 38.76654 -9.13486 346 ft 7 kts 254°
2026-04-26 16:19 38.76618 -9.13705 348 ft 16 kts 258°
2026-04-26 16:19 38.76594 -9.13850 346 ft 17 kts 257°
2026-04-26 16:19 38.76559 -9.14131 348 ft 13 kts 287°
2026-04-26 16:20 38.76598 -9.14248 338 ft 16 kts 294°
2026-04-26 16:20 38.76682 -9.14369 333 ft 3 kts 22°
2026-04-26 16:20 38.76801 -9.14306 340 ft 49 kts 22°
2026-04-26 16:21 38.77315 -9.14031 359 ft 109 kts 22°
2026-04-26 16:21 38.78176 -9.13569 367 ft 157 kts 24°
2026-04-26 16:21 38.79237 -9.13005 802 ft 165 kts 18°
2026-04-26 16:21 38.80299 -9.12436 1542 ft 164 kts 20°
2026-04-26 16:22 38.81393 -9.11843 2031 ft 181 kts 24°
2026-04-26 16:22 38.82550 -9.10971 2362 ft 204 kts 32°
2026-04-26 16:22 38.83840 -9.09966 2753 ft 229 kts 29°
2026-04-26 16:22 38.85272 -9.08856 3334 ft 248 kts 31°
2026-04-26 16:23 38.86770 -9.07699 4146 ft 254 kts 31°
2026-04-26 16:23 38.88302 -9.06511 5030 ft 261 kts 33°
2026-04-26 16:23 38.89826 -9.05226 5912 ft 264 kts 42°
2026-04-26 16:23 38.91189 -9.03632 6843 ft 266 kts 44°
2026-04-26 16:24 38.92565 -9.02021 7706 ft 270 kts 44°
2026-04-26 16:24 38.93967 -9.00388 8567 ft 274 kts 44°
2026-04-26 16:24 38.95393 -8.98730 9406 ft 279 kts 44°
2026-04-26 16:24 38.96841 -8.97046 10212 ft 283 kts 44°
2026-04-26 16:25 38.98350 -8.95289 10597 ft 304 kts 44°
2026-04-26 16:25 38.99976 -8.93392 10798 ft 327 kts 44°
2026-04-26 16:25 39.01693 -8.91384 10991 ft 350 kts 44°
2026-04-26 16:25 39.03527 -8.89237 11451 ft 360 kts 43°
2026-04-26 16:26 39.05395 -8.87053 12110 ft 366 kts 43°
2026-04-26 16:26 39.07289 -8.84838 12807 ft 370 kts 43°
2026-04-26 16:26 39.09206 -8.82593 13506 ft 374 kts 43°
2026-04-26 16:26 39.11143 -8.80324 14137 ft 379 kts 43°
2026-04-26 16:27 39.13097 -8.78031 14713 ft 382 kts 43°
2026-04-26 16:27 39.15073 -8.75714 15296 ft 385 kts 43°
2026-04-26 16:27 39.17032 -8.73339 15887 ft 389 kts 47°
2026-04-26 16:27 39.18836 -8.70729 16472 ft 391 kts 49°
2026-04-26 16:28 39.20642 -8.68083 17050 ft 395 kts 49°
2026-04-26 16:28 39.22463 -8.65410 17621 ft 398 kts 49°
2026-04-26 16:28 39.24297 -8.62712 18208 ft 402 kts 49°
2026-04-26 16:28 39.26146 -8.59994 18697 ft 405 kts 49°
2026-04-26 16:29 39.28016 -8.57248 19188 ft 408 kts 49°
2026-04-26 16:29 39.29896 -8.54488 19688 ft 411 kts 49°
2026-04-26 16:29 39.31786 -8.51707 20190 ft 413 kts 49°
2026-04-26 16:29 39.33684 -8.48905 20655 ft 416 kts 49°
2026-04-26 16:30 39.35593 -8.46088 21117 ft 418 kts 48°
2026-04-26 16:30 39.37515 -8.43255 21559 ft 420 kts 48°
2026-04-26 16:30 39.39445 -8.40412 22018 ft 422 kts 48°
2026-04-26 16:30 39.41389 -8.37549 22430 ft 425 kts 48°
2026-04-26 16:31 39.43344 -8.34666 22839 ft 427 kts 48°
2026-04-26 16:31 39.45306 -8.31762 23236 ft 430 kts 48°
2026-04-26 16:31 39.47277 -8.28840 23619 ft 432 kts 48°
2026-04-26 16:31 39.49257 -8.25900 23937 ft 434 kts 48°
2026-04-26 16:32 39.51246 -8.22942 24260 ft 436 kts 48°
2026-04-26 16:32 39.52566 -8.20975 24461 ft 438 kts 48°
2026-04-26 16:32 39.55248 -8.16984 24870 ft 441 kts 48°
2026-04-26 16:32 39.57265 -8.13982 25168 ft 443 kts 48°
2026-04-26 16:33 39.59293 -8.10960 25455 ft 445 kts 48°
2026-04-26 16:33 39.61326 -8.07928 25738 ft 447 kts 48°
2026-04-26 16:33 39.63367 -8.04875 26025 ft 449 kts 48°
2026-04-26 16:33 39.65419 -8.01811 26297 ft 451 kts 47°
2026-04-26 16:34 39.67551 -7.98821 26571 ft 452 kts 45°
2026-04-26 16:34 39.69784 -7.95937 26812 ft 454 kts 43°
2026-04-26 16:34 39.72083 -7.93120 27050 ft 455 kts 42°
2026-04-26 16:34 39.74411 -7.90320 27299 ft 457 kts 42°
2026-04-26 16:35 39.76741 -7.87500 27542 ft 458 kts 42°
2026-04-26 16:35 39.79058 -7.84648 27769 ft 460 kts 43°
2026-04-26 16:35 39.81368 -7.81761 28023 ft 461 kts 43°
2026-04-26 16:35 39.83631 -7.78893 28340 ft 460 kts 43°
2026-04-26 16:36 39.85909 -7.75980 28671 ft 459 kts 43°
2026-04-26 16:36 39.88183 -7.73068 28990 ft 458 kts 43°
2026-04-26 16:36 39.90458 -7.70171 29324 ft 457 kts 43°
2026-04-26 16:36 39.92735 -7.67277 29648 ft 457 kts 43°
2026-04-26 16:37 39.95003 -7.64384 29962 ft 456 kts 43°
2026-04-26 16:37 39.97268 -7.61491 30259 ft 456 kts 43°
2026-04-26 16:37 39.99533 -7.58604 30525 ft 455 kts 43°
2026-04-26 16:37 40.01035 -7.56693 30705 ft 455 kts 43°
2026-04-26 16:38 40.04059 -7.52837 31069 ft 454 kts 43°
2026-04-26 16:38 40.06314 -7.49955 31343 ft 454 kts 43°
2026-04-26 16:38 40.08567 -7.47075 31613 ft 453 kts 43°
2026-04-26 16:38 40.10818 -7.44195 31883 ft 453 kts 43°
2026-04-26 16:39 40.13065 -7.41316 32151 ft 452 kts 43°
2026-04-26 16:39 40.15307 -7.38439 32428 ft 452 kts 43°
2026-04-26 16:39 40.17546 -7.35561 32707 ft 451 kts 43°
2026-04-26 16:39 40.19778 -7.32687 32983 ft 451 kts 43°
2026-04-26 16:40 40.22010 -7.29809 33251 ft 450 kts 43°
2026-04-26 16:40 40.24212 -7.26975 33526 ft 450 kts 43°
2026-04-26 16:40 40.26439 -7.24105 33806 ft 449 kts 43°
2026-04-26 16:40 40.28663 -7.21235 34080 ft 449 kts 43°
2026-04-26 16:41 40.30884 -7.18366 34318 ft 448 kts 43°
2026-04-26 16:41 40.33102 -7.15500 34571 ft 447 kts 43°
2026-04-26 16:41 40.35318 -7.12638 34803 ft 447 kts 43°
2026-04-26 16:41 40.37528 -7.09779 35039 ft 447 kts 43°
2026-04-26 16:42 40.39738 -7.06916 35252 ft 446 kts 43°
2026-04-26 16:42 40.41944 -7.04052 35464 ft 446 kts 43°
2026-04-26 16:42 40.44150 -7.01187 35666 ft 446 kts 43°
2026-04-26 16:42 40.46351 -6.98328 35856 ft 445 kts 43°
2026-04-26 16:43 40.48552 -6.95465 36026 ft 446 kts 43°
2026-04-26 16:43 40.50759 -6.92588 36072 ft 448 kts 43°
2026-04-26 16:43 40.55188 -6.86809 36073 ft 449 kts 43°
2026-04-26 16:44 40.59619 -6.81008 36069 ft 449 kts 44°
2026-04-26 16:44 40.64045 -6.75196 36064 ft 450 kts 44°
2026-04-26 16:45 40.68473 -6.69376 36065 ft 450 kts 44°
2026-04-26 16:45 40.72874 -6.63593 36072 ft 450 kts 44°
2026-04-26 16:46 40.77299 -6.57759 36072 ft 450 kts 44°
2026-04-26 16:46 40.81729 -6.51908 36081 ft 451 kts 44°
2026-04-26 16:47 40.86161 -6.46042 36081 ft 451 kts 44°
2026-04-26 16:47 40.90591 -6.40166 36081 ft 451 kts 44°
2026-04-26 16:48 40.95024 -6.34280 36083 ft 452 kts 44°
2026-04-26 16:48 40.99453 -6.28385 36086 ft 452 kts 43°
2026-04-26 16:49 41.04050 -6.22709 36095 ft 452 kts 40°
2026-04-26 16:49 41.08779 -6.17228 36093 ft 452 kts 40°
2026-04-26 16:50 41.13496 -6.11720 36095 ft 452 kts 40°
2026-04-26 16:50 41.18136 -6.06167 36097 ft 452 kts 41°
2026-04-26 16:51 41.22820 -6.00507 36099 ft 453 kts 41°
2026-04-26 16:51 41.27454 -5.94919 36102 ft 453 kts 41°
2026-04-26 16:52 41.31366 -5.90206 36104 ft 453 kts 41°
2026-04-26 16:52 41.36796 -5.83656 36105 ft 453 kts 41°
2026-04-26 16:53 41.41460 -5.78013 36111 ft 453 kts 41°
2026-04-26 16:53 41.46121 -5.72355 36110 ft 453 kts 41°
2026-04-26 16:54 41.50786 -5.66699 36116 ft 453 kts 39°
2026-04-26 16:54 41.56078 -5.62246 36114 ft 450 kts 22°
2026-04-26 16:55 41.61848 -5.59009 36114 ft 450 kts 22°
2026-04-26 16:55 41.67582 -5.55786 36114 ft 450 kts 21°
2026-04-26 16:56 41.76232 -5.50885 36119 ft 450 kts 22°
2026-04-26 16:57 41.82001 -5.47607 36123 ft 450 kts 22°
2026-04-26 16:57 41.90659 -5.42684 36122 ft 451 kts 22°
2026-04-26 16:58 41.94521 -5.40487 36127 ft 451 kts 22°
2026-04-26 16:59 42.05103 -5.34445 36127 ft 451 kts 22°
2026-04-26 17:00 42.16629 -5.27846 36140 ft 452 kts 22°
2026-04-26 17:00 42.25300 -5.22862 36142 ft 451 kts 22°
2026-04-26 17:01 42.31077 -5.19531 36144 ft 451 kts 22°
2026-04-26 17:01 42.36849 -5.16195 36148 ft 451 kts 22°
2026-04-26 17:02 42.42623 -5.12854 36154 ft 451 kts 22°
2026-04-26 17:02 42.48387 -5.09508 36155 ft 451 kts 22°
2026-04-26 17:03 42.54151 -5.06157 36159 ft 451 kts 22°
2026-04-26 17:03 42.59914 -5.02810 36162 ft 450 kts 22°
2026-04-26 17:04 42.65675 -4.99454 36162 ft 450 kts 22°
2026-04-26 17:04 42.71430 -4.96081 36168 ft 450 kts 22°
2026-04-26 17:05 42.77179 -4.92701 36175 ft 450 kts 22°
2026-04-26 17:05 42.82934 -4.89323 36175 ft 450 kts 22°
2026-04-26 17:06 42.88693 -4.85939 36178 ft 451 kts 22°
2026-04-26 17:06 42.93478 -4.83121 36179 ft 451 kts 22°
2026-04-26 17:07 43.00172 -4.79168 36186 ft 451 kts 22°
2026-04-26 17:07 43.05934 -4.75743 36184 ft 451 kts 22°
2026-04-26 17:08 43.10760 -4.72885 36187 ft 452 kts 22°
2026-04-26 17:08 43.16528 -4.69464 36187 ft 452 kts 22°
2026-04-26 17:09 43.21321 -4.66610 36190 ft 452 kts 22°
2026-04-26 17:09 43.28021 -4.62615 36198 ft 452 kts 22°
2026-04-26 17:10 43.33785 -4.59169 36197 ft 452 kts 22°
2026-04-26 17:10 43.39556 -4.55711 36200 ft 452 kts 22°
2026-04-26 17:11 43.45321 -4.52252 36204 ft 452 kts 22°
2026-04-26 17:11 43.51087 -4.48773 36201 ft 452 kts 22°
2026-04-26 17:12 43.59740 -4.43552 36199 ft 453 kts 22°
2026-04-26 17:13 43.68394 -4.38325 36196 ft 453 kts 22°
2026-04-26 17:14 43.77049 -4.33065 36199 ft 453 kts 22°
2026-04-26 17:14 43.85705 -4.27788 36195 ft 453 kts 22°
2026-04-26 17:15 43.94364 -4.22494 36194 ft 453 kts 22°
2026-04-26 17:16 44.00135 -4.18959 36195 ft 454 kts 22°
2026-04-26 17:16 44.05915 -4.15424 36191 ft 454 kts 22°
2026-04-26 17:17 44.11655 -4.11898 36192 ft 454 kts 22°
2026-04-26 17:17 44.17431 -4.08326 36190 ft 454 kts 22°
2026-04-26 17:18 44.23206 -4.04756 36193 ft 454 kts 22°
2026-04-26 17:18 44.28984 -4.01177 36194 ft 454 kts 22°
2026-04-26 17:19 44.37210 -3.94598 36190 ft 457 kts 33°
2026-04-26 17:19 44.42437 -3.89555 36189 ft 457 kts 33°
2026-04-26 17:20 44.46787 -3.85353 36187 ft 457 kts 33°
2026-04-26 17:20 44.52905 -3.79446 36186 ft 457 kts 33°
2026-04-26 17:21 44.58141 -3.74376 36186 ft 457 kts 33°
2026-04-26 17:21 44.63371 -3.69286 36187 ft 458 kts 33°
2026-04-26 17:22 44.68602 -3.64186 36186 ft 458 kts 33°
2026-04-26 17:22 44.73834 -3.59088 36185 ft 458 kts 33°
2026-04-26 17:23 44.79066 -3.53973 36189 ft 458 kts 33°
2026-04-26 17:23 44.84291 -3.48836 36184 ft 458 kts 33°
2026-04-26 17:24 44.89516 -3.43692 36190 ft 458 kts 33°
2026-04-26 17:24 44.94744 -3.38543 36189 ft 458 kts 33°
2026-04-26 17:25 44.99983 -3.33376 36149 ft 461 kts 33°
2026-04-26 17:25 45.05251 -3.28167 36156 ft 463 kts 33°
2026-04-26 17:26 45.10533 -3.22918 36162 ft 464 kts 33°
2026-04-26 17:26 45.15829 -3.17657 36168 ft 465 kts 33°
2026-04-26 17:27 45.21132 -3.12378 36170 ft 466 kts 33°
2026-04-26 17:27 45.26398 -3.07120 36174 ft 466 kts 33°
2026-04-26 17:28 45.31702 -3.01811 36178 ft 466 kts 33°
2026-04-26 17:28 45.36981 -2.96436 36186 ft 467 kts 34°
2026-04-26 17:29 45.41378 -2.91875 36187 ft 467 kts 34°
2026-04-26 17:29 45.47476 -2.85535 36192 ft 467 kts 34°
2026-04-26 17:30 45.52731 -2.80086 36191 ft 467 kts 34°
2026-04-26 17:30 45.57984 -2.74628 36192 ft 467 kts 34°
2026-04-26 17:31 45.63238 -2.69160 36192 ft 467 kts 34°
2026-04-26 17:31 45.68485 -2.63687 36193 ft 467 kts 34°
2026-04-26 17:32 45.73733 -2.58193 36198 ft 467 kts 34°
2026-04-26 17:32 45.78982 -2.52712 36199 ft 467 kts 34°
2026-04-26 17:33 45.84226 -2.47205 36198 ft 467 kts 34°
2026-04-26 17:34 45.92075 -2.38906 36200 ft 467 kts 34°
2026-04-26 17:34 45.97302 -2.33369 36200 ft 467 kts 34°
2026-04-26 17:35 46.02531 -2.27827 36199 ft 467 kts 34°
2026-04-26 17:35 46.07388 -2.21620 36198 ft 469 kts 46°
2026-04-26 17:36 46.11825 -2.14725 36198 ft 469 kts 45°
2026-04-26 17:36 46.16236 -2.07874 36196 ft 469 kts 45°
2026-04-26 17:37 46.20672 -2.00975 36195 ft 469 kts 45°
2026-04-26 17:37 46.25102 -1.94059 36195 ft 469 kts 45°
2026-04-26 17:38 46.31736 -1.83663 36195 ft 469 kts 46°
2026-04-26 17:38 46.36151 -1.76719 36194 ft 469 kts 46°
2026-04-26 17:39 46.40558 -1.69762 36195 ft 468 kts 46°
2026-04-26 17:39 46.44962 -1.62809 36198 ft 468 kts 46°
2026-04-26 17:40 46.47910 -1.58147 36197 ft 468 kts 46°
2026-04-26 17:40 46.53756 -1.48865 36200 ft 468 kts 46°
2026-04-26 17:41 46.58141 -1.41876 36203 ft 468 kts 46°
2026-04-26 17:41 46.62518 -1.34876 36202 ft 468 kts 46°
2026-04-26 17:42 46.66883 -1.27848 36204 ft 468 kts 46°
2026-04-26 17:42 46.71238 -1.20811 36199 ft 468 kts 46°
2026-04-26 17:43 46.75590 -1.13762 36196 ft 468 kts 46°
2026-04-26 17:43 46.79937 -1.06699 36192 ft 468 kts 46°
2026-04-26 17:44 46.84254 -0.99677 36187 ft 468 kts 46°
2026-04-26 17:44 46.88593 -0.92603 36186 ft 468 kts 46°
2026-04-26 17:45 46.92926 -0.85513 36184 ft 467 kts 46°
2026-04-26 17:45 46.97253 -0.78413 36185 ft 467 kts 46°
2026-04-26 17:46 47.01574 -0.71305 36184 ft 467 kts 46°
2026-04-26 17:46 47.05885 -0.64193 36188 ft 467 kts 46°
2026-04-26 17:47 47.08770 -0.59430 36190 ft 467 kts 46°
2026-04-26 17:47 47.14494 -0.49933 36190 ft 466 kts 46°
2026-04-26 17:48 47.18791 -0.42792 36189 ft 466 kts 46°
2026-04-26 17:48 47.23078 -0.35632 36190 ft 466 kts 46°
2026-04-26 17:49 47.27506 -0.28679 36193 ft 465 kts 42°
2026-04-26 17:49 47.32178 -0.22117 36197 ft 464 kts 41°
2026-04-26 17:50 47.36871 -0.15588 36195 ft 464 kts 41°
2026-04-26 17:50 47.41491 -0.08938 36198 ft 464 kts 42°
2026-04-26 17:51 47.46068 -0.02229 36199 ft 464 kts 42°
2026-04-26 17:51 47.50658 0.04478 36199 ft 463 kts 42°
2026-04-26 17:52 47.55250 0.11164 36195 ft 463 kts 42°
2026-04-26 17:52 47.59805 0.17823 36196 ft 463 kts 42°
2026-04-26 17:53 47.64378 0.24546 36202 ft 463 kts 43°
2026-04-26 17:54 47.71224 0.34629 36206 ft 462 kts 42°
2026-04-26 17:54 47.75782 0.41357 36206 ft 462 kts 43°
2026-04-26 17:55 47.80333 0.48088 36207 ft 461 kts 43°
2026-04-26 17:55 47.84858 0.54806 36207 ft 461 kts 43°
2026-04-26 17:56 47.89381 0.61564 36207 ft 461 kts 43°
2026-04-26 17:56 47.93145 0.67185 36341 ft 460 kts 43°
2026-04-26 17:57 47.97657 0.73937 36759 ft 459 kts 43°
2026-04-26 17:57 47.99907 0.77312 36945 ft 458 kts 43°
2026-04-26 17:57 48.02155 0.80683 37129 ft 458 kts 43°
2026-04-26 17:57 48.04400 0.84052 37304 ft 457 kts 43°
2026-04-26 17:58 48.11112 0.94156 37817 ft 456 kts 43°
2026-04-26 17:59 48.15565 1.00890 38164 ft 454 kts 43°
2026-04-26 17:59 48.17785 1.04255 38206 ft 455 kts 43°
2026-04-26 17:59 48.22161 1.11096 38207 ft 456 kts 49°
2026-04-26 18:00 48.26169 1.18467 38210 ft 456 kts 49°
2026-04-26 18:00 48.30187 1.25832 38212 ft 456 kts 49°
2026-04-26 18:01 48.34200 1.33206 38206 ft 456 kts 49°
2026-04-26 18:01 48.38207 1.40605 38213 ft 456 kts 49°
2026-04-26 18:02 48.41533 1.46763 38218 ft 456 kts 49°
2026-04-26 18:02 48.46205 1.55444 38220 ft 457 kts 49°
2026-04-26 18:03 48.50197 1.62890 38228 ft 457 kts 49°
2026-04-26 18:03 48.54194 1.70342 38229 ft 457 kts 49°
2026-04-26 18:04 48.58162 1.77748 38234 ft 457 kts 49°
2026-04-26 18:05 48.64135 1.88976 38241 ft 457 kts 49°
2026-04-26 18:05 48.68108 1.96481 38246 ft 457 kts 49°
2026-04-26 18:06 48.70097 2.00239 38243 ft 457 kts 49°
2026-04-26 18:06 48.72024 2.03893 38256 ft 457 kts 49°
2026-04-26 18:07 48.75688 2.11763 38243 ft 460 kts 61°
2026-04-26 18:07 48.78183 2.20717 38250 ft 461 kts 66°
2026-04-26 18:08 48.80589 2.29727 38231 ft 461 kts 66°
2026-04-26 18:08 48.82999 2.38742 38237 ft 461 kts 66°
2026-04-26 18:09 48.85395 2.47775 38239 ft 461 kts 66°
2026-04-26 18:09 48.87774 2.56808 38240 ft 461 kts 66°
2026-04-26 18:10 48.90142 2.65847 38240 ft 460 kts 66°
2026-04-26 18:10 48.92492 2.74832 38238 ft 460 kts 66°
2026-04-26 18:11 48.94849 2.83881 38242 ft 460 kts 66°
2026-04-26 18:11 48.97199 2.92927 38241 ft 460 kts 66°
2026-04-26 18:12 48.99548 3.01977 38247 ft 460 kts 66°
2026-04-26 18:12 49.01888 3.11037 38247 ft 460 kts 66°
2026-04-26 18:13 49.04213 3.20103 38244 ft 459 kts 66°
2026-04-26 18:13 49.06531 3.29179 38245 ft 459 kts 66°
2026-04-26 18:14 49.08843 3.38266 38247 ft 459 kts 66°
2026-04-26 18:14 49.11146 3.47358 38245 ft 459 kts 66°
2026-04-26 18:15 49.13616 3.56318 38243 ft 456 kts 58°
2026-04-26 18:15 49.17378 3.63997 38247 ft 450 kts 45°
2026-04-26 18:16 49.21537 3.71158 38245 ft 451 kts 45°
2026-04-26 18:16 49.27724 3.81917 38240 ft 451 kts 45°
2026-04-26 18:17 49.31860 3.89141 38238 ft 451 kts 45°
2026-04-26 18:17 49.35995 3.96367 38239 ft 451 kts 45°
2026-04-26 18:18 49.40126 4.03604 38241 ft 451 kts 45°
2026-04-26 18:18 49.44252 4.10860 38244 ft 451 kts 46°
2026-04-26 18:19 49.48377 4.18120 38243 ft 451 kts 46°
2026-04-26 18:19 49.52493 4.25397 38252 ft 451 kts 46°
2026-04-26 18:20 49.56602 4.32687 38255 ft 451 kts 46°
2026-04-26 18:20 49.60016 4.38755 38257 ft 451 kts 46°
2026-04-26 18:21 49.64814 4.47309 38255 ft 451 kts 46°
2026-04-26 18:21 49.68914 4.54637 38259 ft 451 kts 46°
2026-04-26 18:22 49.73009 4.61979 38262 ft 451 kts 46°
2026-04-26 18:22 49.77095 4.69332 38263 ft 451 kts 46°
2026-04-26 18:23 49.81178 4.76696 38264 ft 451 kts 46°
2026-04-26 18:23 49.85256 4.84074 38271 ft 451 kts 46°
2026-04-26 18:24 49.89334 4.91448 38270 ft 450 kts 46°
2026-04-26 18:24 49.93376 4.98794 38273 ft 450 kts 46°
2026-04-26 18:25 49.97462 5.06248 38269 ft 450 kts 46°
2026-04-26 18:25 50.01488 5.13621 38274 ft 450 kts 46°
2026-04-26 18:26 50.05537 5.21055 38277 ft 450 kts 46°
2026-04-26 18:26 50.09582 5.28487 38277 ft 450 kts 46°
2026-04-26 18:27 50.13642 5.35911 38279 ft 448 kts 43°
2026-04-26 18:27 50.18344 5.42153 38276 ft 443 kts 34°
2026-04-26 18:28 50.23225 5.48033 38281 ft 443 kts 34°
2026-04-26 18:28 50.28100 5.53926 38288 ft 443 kts 34°
2026-04-26 18:29 50.32964 5.59837 38289 ft 443 kts 34°
2026-04-26 18:29 50.37827 5.65768 38292 ft 443 kts 34°
2026-04-26 18:30 50.42687 5.71712 38290 ft 443 kts 34°
2026-04-26 18:30 50.47548 5.77651 38296 ft 443 kts 34°
2026-04-26 18:31 50.52399 5.83603 38293 ft 442 kts 34°
2026-04-26 18:31 50.54817 5.86585 37766 ft 441 kts 34°
2026-04-26 18:31 50.57225 5.89560 37347 ft 440 kts 34°
2026-04-26 18:32 50.59638 5.92535 37235 ft 441 kts 34°
2026-04-26 18:32 50.62061 5.95523 37268 ft 443 kts 34°
2026-04-26 18:32 50.66907 6.01520 37270 ft 443 kts 34°
2026-04-26 18:33 50.71751 6.07543 37273 ft 443 kts 34°
2026-04-26 18:33 50.76590 6.13573 37275 ft 443 kts 34°
2026-04-26 18:34 50.81429 6.19620 37277 ft 443 kts 34°
2026-04-26 18:34 50.86189 6.25832 37281 ft 445 kts 38°
2026-04-26 18:35 50.90703 6.32567 37290 ft 445 kts 39°
2026-04-26 18:35 50.95152 6.39251 37293 ft 445 kts 39°
2026-04-26 18:36 50.99565 6.46158 37293 ft 447 kts 44°
2026-04-26 18:36 51.03705 6.53551 37293 ft 448 kts 44°
2026-04-26 18:37 51.07828 6.60969 37290 ft 448 kts 44°
2026-04-26 18:37 51.12426 6.67373 37280 ft 441 kts 33°
2026-04-26 18:38 51.17295 6.73338 37272 ft 442 kts 33°
2026-04-26 18:38 51.22174 6.79322 37271 ft 443 kts 33°
2026-04-26 18:39 51.27053 6.85326 37277 ft 443 kts 33°
2026-04-26 18:39 51.31931 6.91349 37277 ft 443 kts 33°
2026-04-26 18:40 51.36806 6.97394 37279 ft 443 kts 33°
2026-04-26 18:40 51.41680 7.03453 37285 ft 443 kts 33°
2026-04-26 18:41 51.46560 7.09513 37292 ft 444 kts 33°
2026-04-26 18:41 51.51424 7.15600 37293 ft 444 kts 33°
2026-04-26 18:42 51.56290 7.21708 37294 ft 444 kts 33°
2026-04-26 18:42 51.61156 7.27821 37294 ft 444 kts 33°
2026-04-26 18:43 51.66020 7.33942 37296 ft 444 kts 33°
2026-04-26 18:43 51.70851 7.40034 37297 ft 444 kts 33°
2026-04-26 18:44 51.75707 7.46179 37301 ft 444 kts 33°
2026-04-26 18:44 51.80564 7.52351 37302 ft 444 kts 33°
2026-04-26 18:45 51.85414 7.58528 37313 ft 444 kts 33°
2026-04-26 18:45 51.90261 7.64720 37311 ft 444 kts 33°
2026-04-26 18:46 51.94291 7.69875 37305 ft 444 kts 34°
2026-04-26 18:46 51.99134 7.76102 37318 ft 444 kts 34°
2026-04-26 18:47 52.03975 7.82330 37314 ft 444 kts 34°
2026-04-26 18:47 52.08817 7.88576 37318 ft 444 kts 34°
2026-04-26 18:48 52.13655 7.94842 37319 ft 444 kts 34°
2026-04-26 18:48 52.16082 7.97993 36945 ft 446 kts 34°
2026-04-26 18:48 52.18503 8.01142 36460 ft 445 kts 34°
2026-04-26 18:49 52.20920 8.04290 35975 ft 446 kts 33°
2026-04-26 18:49 52.23344 8.07453 35501 ft 446 kts 33°
2026-04-26 18:49 52.25770 8.10619 35038 ft 447 kts 33°
2026-04-26 18:49 52.28200 8.13797 34582 ft 448 kts 33°
2026-04-26 18:50 52.30633 8.16983 34106 ft 449 kts 33°
2026-04-26 18:50 52.33079 8.20185 33586 ft 451 kts 33°
2026-04-26 18:50 52.35528 8.23397 33073 ft 452 kts 33°
2026-04-26 18:50 52.37984 8.26626 32572 ft 454 kts 34°
2026-04-26 18:51 52.40450 8.29874 32083 ft 455 kts 34°
2026-04-26 18:51 52.42923 8.33135 31599 ft 457 kts 34°
2026-04-26 18:51 52.45441 8.36313 31104 ft 454 kts 27°
2026-04-26 18:51 52.48236 8.38609 30676 ft 449 kts 18°
2026-04-26 18:52 52.51118 8.40620 30302 ft 452 kts 18°
2026-04-26 18:52 52.54018 8.42633 29868 ft 453 kts 18°
2026-04-26 18:52 52.56930 8.44657 29448 ft 455 kts 18°
2026-04-26 18:52 52.59845 8.46686 29025 ft 456 kts 18°
2026-04-26 18:53 52.62773 8.48724 28622 ft 458 kts 18°
2026-04-26 18:53 52.65711 8.50774 28218 ft 459 kts 19°
2026-04-26 18:53 52.68650 8.52829 27822 ft 458 kts 19°
2026-04-26 18:53 52.71542 8.54863 27426 ft 445 kts 19°
2026-04-26 18:54 52.74346 8.56842 27036 ft 432 kts 19°
2026-04-26 18:54 52.77074 8.58771 26660 ft 422 kts 19°
2026-04-26 18:54 52.79743 8.60658 26275 ft 412 kts 19°
2026-04-26 18:54 52.82351 8.62497 25911 ft 403 kts 19°
2026-04-26 18:55 52.84825 8.64238 25554 ft 396 kts 19°
2026-04-26 18:55 52.87356 8.66015 25189 ft 389 kts 18°
2026-04-26 18:55 52.89826 8.67751 24828 ft 383 kts 19°
2026-04-26 18:55 52.92254 8.69465 24479 ft 377 kts 19°
2026-04-26 18:56 52.94647 8.71162 24128 ft 371 kts 19°
2026-04-26 18:56 52.96997 8.72834 23775 ft 365 kts 19°
2026-04-26 18:56 52.99313 8.74486 23322 ft 361 kts 19°
2026-04-26 18:56 53.01617 8.76131 22884 ft 358 kts 19°
2026-04-26 18:57 53.03892 8.77755 22432 ft 355 kts 19°
2026-04-26 18:57 53.05392 8.78827 22132 ft 353 kts 19°
2026-04-26 18:57 53.08397 8.80974 21527 ft 350 kts 19°
2026-04-26 18:57 53.10623 8.82562 21106 ft 347 kts 19°
2026-04-26 18:58 53.12836 8.84146 20678 ft 345 kts 19°
2026-04-26 18:58 53.15032 8.85717 20257 ft 343 kts 19°
2026-04-26 18:58 53.17216 8.87279 19836 ft 341 kts 19°
2026-04-26 18:58 53.19390 8.88834 19423 ft 339 kts 19°
2026-04-26 18:59 53.21548 8.90386 19016 ft 337 kts 19°
2026-04-26 18:59 53.23692 8.91930 18642 ft 335 kts 19°
2026-04-26 18:59 53.25793 8.93441 18235 ft 332 kts 19°
2026-04-26 18:59 53.27903 8.94964 17833 ft 329 kts 19°
2026-04-26 19:00 53.29993 8.96473 17438 ft 326 kts 19°
2026-04-26 19:00 53.32097 8.97994 17033 ft 324 kts 20°
2026-04-26 19:00 53.34127 8.99465 16654 ft 321 kts 20°
2026-04-26 19:00 53.36169 9.00946 16299 ft 318 kts 20°
2026-04-26 19:01 53.38188 9.02413 15969 ft 315 kts 20°
2026-04-26 19:01 53.40187 9.03862 15645 ft 311 kts 20°
2026-04-26 19:01 53.42163 9.05296 15324 ft 308 kts 20°
2026-04-26 19:01 53.44119 9.06716 15008 ft 305 kts 20°
2026-04-26 19:02 53.46057 9.08122 14694 ft 302 kts 20°
2026-04-26 19:02 53.47975 9.09515 14387 ft 299 kts 20°
2026-04-26 19:02 53.49879 9.10903 14068 ft 297 kts 20°
2026-04-26 19:02 53.51127 9.11817 13836 ft 295 kts 20°
2026-04-26 19:03 53.53630 9.13656 13377 ft 293 kts 21°
2026-04-26 19:03 53.55417 9.15713 13039 ft 327 kts 43°
2026-04-26 19:03 53.56629 9.18946 12697 ft 328 kts 61°
2026-04-26 19:03 53.57587 9.22385 12367 ft 322 kts 61°
2026-04-26 19:04 53.58517 9.25782 12047 ft 317 kts 61°
2026-04-26 19:04 53.59432 9.29128 11721 ft 312 kts 61°
2026-04-26 19:04 53.60337 9.32424 11408 ft 308 kts 61°
2026-04-26 19:04 53.61232 9.35676 11082 ft 304 kts 61°
2026-04-26 19:05 53.62963 9.41966 10452 ft 292 kts 60°
2026-04-26 19:05 53.63858 9.45181 10142 ft 308 kts 61°
2026-04-26 19:05 53.64771 9.48465 9786 ft 310 kts 61°
2026-04-26 19:06 53.65681 9.51764 9447 ft 310 kts 62°
2026-04-26 19:06 53.66582 9.55053 9099 ft 309 kts 62°
2026-04-26 19:06 53.67480 9.58339 8769 ft 308 kts 62°
2026-04-26 19:06 53.68372 9.61607 8428 ft 306 kts 62°
2026-04-26 19:07 53.69261 9.64869 8119 ft 305 kts 62°
2026-04-26 19:07 53.70144 9.68115 7868 ft 304 kts 62°
2026-04-26 19:07 53.71028 9.71359 7601 ft 304 kts 62°
2026-04-26 19:07 53.71909 9.74591 7349 ft 303 kts 63°
2026-04-26 19:08 53.72786 9.77816 7102 ft 302 kts 63°
2026-04-26 19:08 53.73662 9.81036 6861 ft 301 kts 63°
2026-04-26 19:08 53.74533 9.84247 6602 ft 300 kts 63°
2026-04-26 19:08 53.75403 9.87457 6349 ft 300 kts 63°
2026-04-26 19:09 53.76266 9.90654 6096 ft 299 kts 63°
2026-04-26 19:09 53.77117 9.93808 5825 ft 290 kts 64°
2026-04-26 19:09 53.77937 9.96856 5564 ft 280 kts 64°
2026-04-26 19:09 53.78716 9.99753 5309 ft 270 kts 64°
2026-04-26 19:10 53.79483 10.02605 5058 ft 262 kts 64°
2026-04-26 19:10 53.80235 10.05409 4786 ft 255 kts 65°
2026-04-26 19:10 53.80957 10.08108 4515 ft 249 kts 65°
2026-04-26 19:10 53.81659 10.10744 4262 ft 243 kts 65°
2026-04-26 19:11 53.82338 10.13294 4067 ft 239 kts 65°
2026-04-26 19:11 53.83021 10.15854 4010 ft 238 kts 65°
2026-04-26 19:11 53.83762 10.18364 4015 ft 239 kts 59°
2026-04-26 19:11 53.84674 10.20718 3896 ft 240 kts 52°
2026-04-26 19:12 53.85719 10.22890 3639 ft 237 kts 51°
2026-04-26 19:12 53.86420 10.25369 3373 ft 235 kts 82°
2026-04-26 19:12 53.86238 10.28058 3113 ft 230 kts 116°
2026-04-26 19:12 53.85310 10.30234 3004 ft 229 kts 138°
2026-04-26 19:13 53.84015 10.31766 3005 ft 228 kts 157°
2026-04-26 19:13 53.82508 10.32524 3011 ft 226 kts 175°
2026-04-26 19:13 53.80952 10.32442 3012 ft 224 kts 193°
2026-04-26 19:13 53.79502 10.31546 3009 ft 222 kts 211°
2026-04-26 19:14 53.78299 10.29935 3009 ft 221 kts 229°
2026-04-26 19:14 53.77315 10.27939 3009 ft 221 kts 231°
2026-04-26 19:14 53.76369 10.25995 3007 ft 206 kts 231°
2026-04-26 19:14 53.75779 10.24786 3007 ft 197 kts 231°
2026-04-26 19:15 53.74673 10.22523 3027 ft 177 kts 232°
2026-04-26 19:15 53.73901 10.20942 3026 ft 173 kts 232°
2026-04-26 19:15 53.73141 10.19389 2970 ft 171 kts 231°
2026-04-26 19:15 53.72386 10.17847 2797 ft 170 kts 232°
2026-04-26 19:16 53.71634 10.16310 2590 ft 170 kts 231°
2026-04-26 19:16 53.70882 10.14776 2359 ft 170 kts 232°
2026-04-26 19:16 53.70131 10.13246 2135 ft 169 kts 232°
2026-04-26 19:16 53.69380 10.11714 1896 ft 170 kts 232°
2026-04-26 19:17 53.68640 10.10208 1684 ft 167 kts 233°
2026-04-26 19:17 53.67928 10.08762 1449 ft 150 kts 233°
2026-04-26 19:17 53.67297 10.07480 1239 ft 140 kts 234°
2026-04-26 19:17 53.66682 10.06228 1052 ft 138 kts 234°
2026-04-26 19:18 53.66072 10.04988 853 ft 136 kts 233°
2026-04-26 19:18 53.65469 10.03762 678 ft 136 kts 234°
2026-04-26 19:18 53.64867 10.02544 495 ft 135 kts 234°
2026-04-26 19:18 53.64261 10.01334 324 ft 136 kts 231°
2026-04-26 19:19 53.63674 10.00111 113 ft 134 kts 232°
2026-04-26 19:19 53.63103 9.98948 47 ft 114 kts 231°
2026-04-26 19:19 53.62704 9.98148 42 ft 64 kts 230°
2026-04-26 19:19 53.62524 9.97799 41 ft 15 kts 210°
2026-04-26 19:20 53.62440 9.97831 43 ft 11 kts 133°
2026-04-26 19:20 53.62427 9.97897 45 ft 7 kts 94°
2026-04-26 19:20 53.62440 9.98010 45 ft 12 kts 76°
2026-04-26 19:20 53.62501 9.98169 47 ft 20 kts 50°
2026-04-26 19:21 53.62593 9.98355 47 ft 21 kts 50°
2026-04-26 19:21 53.62689 9.98549 47 ft 22 kts 50°
2026-04-26 19:21 53.62789 9.98753 47 ft 24 kts 50°
2026-04-26 19:21 53.62898 9.98971 47 ft 23 kts 50°
2026-04-26 19:22 53.63003 9.99184 47 ft 25 kts 50°
2026-04-26 19:22 53.63088 9.99379 47 ft 21 kts 56°
2026-04-26 19:22 53.63177 9.99581 46 ft 19 kts 50°
2026-04-26 19:22 53.63252 9.99719 48 ft 15 kts 43°
2026-04-26 19:23 53.63323 9.99852 48 ft 16 kts 50°
2026-04-26 19:23 53.63395 9.99997 48 ft 17 kts 49°
2026-04-26 19:23 53.63420 10.00143 48 ft 12 kts 114°
2026-04-26 19:23 53.63362 10.00222 48 ft 10 kts 165°
2026-04-26 19:24 53.63328 10.00283 48 ft 7 kts 92°
2026-04-26 19:24 53.63331 10.00345 48 ft 0 kts 86°